5 day graph

You are here

Hive Data

Page: 1 of 16645  Records: 998690

Row Date Time Hive Temp Hive Humidity Outside Temp Outside Humidity Bottom Board Temp Outside Wall Temp Electronics Temp Light Levels inHG Fan Heat Cover Notes
Clear Sorted By: Light Levels ascending, Outside Temp ascending, Bottom Board Temp ascending, Row descending
View 765161 Dec 30 2015 6:26:37am 40.64 53 24.62 90 25.25 26.6 41 0 29.58 0 0 0 NA
View 765160 Dec 30 2015 6:25:37am 40.64 53 24.62 90 25.25 26.6 41 0 29.58 0 0 0 NA
View 765159 Dec 30 2015 6:24:36am 40.82 52 24.62 90 25.25 26.6 41 0 29.57 0 0 0 NA
View 765158 Dec 30 2015 6:23:36am 40.82 53 24.62 90 25.25 26.6 41 0 29.57 0 0 0 NA
View 765157 Dec 30 2015 6:22:36am 40.82 53 24.62 91 25.25 26.6 41 0 29.57 0 0 0 NA
View 765156 Dec 30 2015 6:21:35am 40.82 53 24.62 90 25.25 26.6 41 0 29.58 0 0 0 NA
View 765155 Dec 30 2015 6:20:36am 40.82 52 24.62 90 25.25 26.6 41 0 29.57 0 0 0 NA
View 765154 Dec 30 2015 6:19:35am 40.82 53 24.62 90 25.25 26.6 41 0 29.57 0 0 0 NA
View 765153 Dec 30 2015 6:18:35am 40.82 53 24.62 90 25.25 26.6 41 0 29.57 0 0 0 NA
View 765152 Dec 30 2015 6:17:35am 40.82 53 24.62 90 25.25 26.6 41 0 29.57 0 0 0 NA
View 765151 Dec 30 2015 6:16:35am 40.82 53 24.62 90 25.25 26.6 41 0 29.57 0 0 0 NA
View 765150 Dec 30 2015 6:15:35am 40.82 53 24.62 90 25.25 26.6 41 0 29.57 0 0 0 NA
View 765149 Dec 30 2015 6:14:34am 40.82 55 24.62 90 25.25 26.6 41 0 29.57 0 0 0 NA
View 765144 Dec 30 2015 6:09:34am 40.82 54 24.62 90 25.25 26.6 41 0 29.57 0 0 0 NA
View 765143 Dec 30 2015 6:08:33am 40.82 54 24.62 91 25.25 26.6 41 0 29.57 0 0 0 NA
View 765142 Dec 30 2015 6:07:33am 40.82 54 24.62 91 25.25 26.6 41 0 29.57 0 0 0 NA
View 765141 Dec 30 2015 6:06:33am 41 54 24.62 91 25.25 26.6 41 0 29.57 0 0 0 NA
View 765140 Dec 30 2015 6:05:32am 41 54 24.62 91 25.25 26.6 41 0 29.57 0 0 0 NA
View 765139 Dec 30 2015 6:04:33am 41 54 24.62 91 25.25 26.6 41 0 29.57 0 0 0 NA
View 765138 Dec 30 2015 6:03:32am 41 54 24.62 91 25.25 26.6 41 0 29.57 0 0 0 NA
View 765137 Dec 30 2015 6:02:32am 41 54 24.62 91 25.25 26.6 41 0 29.57 0 0 0 NA
View 765136 Dec 30 2015 6:01:32am 41 55 24.62 91 25.25 26.6 41 0 29.57 0 0 0 NA
View 765135 Dec 30 2015 6:00:32am 41 55 24.62 90 25.25 26.6 41 0 29.56 0 0 0 NA
View 765134 Dec 30 2015 5:59:32am 41 54 24.62 90 25.25 26.6 41 0 29.57 0 0 0 NA
View 765133 Dec 30 2015 5:58:31am 41 53 24.62 90 25.25 26.6 41 0 29.57 0 0 0 NA
View 765131 Dec 30 2015 5:56:31am 41 55 24.62 90 25.25 26.6 41 0 29.56 0 0 0 NA
View 765130 Dec 30 2015 5:55:30am 41 55 24.62 90 25.25 26.6 41 0 29.56 0 0 0 NA
View 765126 Dec 30 2015 5:51:30am 41 54 24.62 91 25.25 26.6 41 0 29.56 0 0 0 NA
View 765132 Dec 30 2015 5:57:31am 41 54 24.62 90 25.7 26.6 41 0 29.57 0 0 0 NA
View 765129 Dec 30 2015 5:54:31am 41 54 24.62 91 25.7 26.6 41 0 29.56 0 0 0 NA
View 765128 Dec 30 2015 5:53:30am 41 55 24.62 91 25.7 26.6 41 0 29.56 0 0 0 NA
View 765127 Dec 30 2015 5:52:30am 41 53 24.62 91 25.7 26.6 41 0 29.56 0 0 0 NA
View 765125 Dec 30 2015 5:50:30am 41 54 24.62 91 25.7 26.6 41 0 29.56 0 0 0 NA
View 765124 Dec 30 2015 5:49:29am 41 54 24.62 91 25.7 26.6 41 0 29.56 0 0 0 NA
View 765123 Dec 30 2015 5:48:29am 41 54 24.62 90 25.7 26.6 41 0 29.56 0 0 0 NA
View 765122 Dec 30 2015 5:47:29am 41 54 24.62 91 25.7 26.6 41 0 29.56 0 0 0 NA
View 765121 Dec 30 2015 5:46:29am 41.18 54 24.62 91 25.7 26.6 41 0 29.56 0 0 0 NA
View 765120 Dec 30 2015 5:45:29am 41 55 24.62 91 25.7 26.6 41 0 29.56 0 0 0 NA
View 765119 Dec 30 2015 5:44:28am 41.18 54 24.62 91 25.7 26.6 41 0 29.56 0 0 0 NA
View 765118 Dec 30 2015 5:43:29am 41.18 54 24.62 91 25.7 26.6 41 0 29.56 0 0 0 NA
View 765117 Dec 30 2015 5:42:28am 41.18 55 24.62 91 25.7 26.6 42.8 0 29.56 0 0 0 NA
View 765116 Dec 30 2015 5:41:28am 41.18 54 24.62 91 25.7 26.6 42.8 0 29.56 0 0 0 NA
View 765115 Dec 30 2015 5:40:28am 41.18 55 24.62 92 25.7 26.6 41 0 29.56 0 0 0 NA
View 765114 Dec 30 2015 5:39:27am 41.18 55 24.62 92 25.7 26.6 41 0 29.56 0 0 0 NA
View 765113 Dec 30 2015 5:38:27am 41.18 55 24.62 91 25.7 26.6 42.8 0 29.56 0 0 0 NA
View 765112 Dec 30 2015 5:37:27am 41.18 54 24.62 91 25.7 26.6 42.8 0 29.56 0 0 0 NA
View 765111 Dec 30 2015 5:36:27am 41.18 54 24.62 91 25.7 26.6 42.8 0 29.56 0 0 0 NA
View 765110 Dec 30 2015 5:35:27am 41.18 54 24.62 91 25.7 26.6 42.8 0 29.56 0 0 0 NA
View 765109 Dec 30 2015 5:34:27am 41.18 55 24.62 91 25.7 26.6 42.8 0 29.56 0 0 0 NA
View 765108 Dec 30 2015 5:33:26am 41.18 56 24.62 91 25.7 26.6 42.8 0 29.56 0 0 0 NA
View 765107 Dec 30 2015 5:32:26am 41.18 55 24.62 90 25.7 26.6 42.8 0 29.56 0 0 0 NA
View 765106 Dec 30 2015 5:31:26am 41.18 56 24.62 90 25.7 26.6 42.8 0 29.56 0 0 0 NA
View 765105 Dec 30 2015 5:30:26am 41.36 56 24.62 90 25.7 26.6 42.8 0 29.55 0 0 0 NA
View 765102 Dec 30 2015 5:27:25am 41.36 56 24.62 90 25.7 26.6 42.8 0 29.56 0 0 0 NA
View 765163 Dec 30 2015 6:28:37am 40.64 53 24.8 90 25.25 26.6 41 0 29.58 0 0 0 NA
View 765162 Dec 30 2015 6:27:37am 40.64 54 24.8 90 25.25 26.6 41 0 29.57 0 0 0 NA
View 765148 Dec 30 2015 6:13:34am 40.82 57 24.8 90 25.25 26.6 41 0 29.57 0 0 0 NA
View 765147 Dec 30 2015 6:12:34am 40.82 56 24.8 90 25.25 26.6 41 0 29.57 0 0 0 NA
View 765146 Dec 30 2015 6:11:34am 41 54 24.8 90 25.25 26.6 41 0 29.57 0 0 0 NA
View 765145 Dec 30 2015 6:10:33am 41 54 24.8 90 25.25 26.6 41 0 29.57 0 0 0 NA